Weather History for Sivas, Turkey

Change the Weather History Date:

Saturday, February 2, 2013

  Actual Average Record
Temperature  
Mean Temperature 28 °F -  
Max Temperature 40 °F 38 °F - ()
Min Temperature 17 °F 23 °F - ()
Degree Days  
Heating Degree Days 36    
Moisture  
Dew Point 19 °F    
Average Humidity 82    
Maximum Humidity 100    
Minimum Humidity 35    
Precipitation  
Precipitation 0.00 in 0.05 in - ()
Sea Level Pressure  
Sea Level Pressure 29.95 in    
Wind  
Wind Speed 7 mph ()    
Max Wind Speed 14 mph    
Max Gust Speed -    
Visibility 6.3 miles    
Events Snow    
T = Trace of Precipitation, MM = Missing Value Source: Averaged Metar Reports

Daily Weather History Graph

Daily Weather History Graph

Search for Another Location

Airport:

Trip Planner

Search our weather history database for the weather conditions in past years. The results will help you decide how hot, cold, wet, or windy it might be!

Date:

Astronomy

Feb. 02, 2013 Rise Set
Actual Time 6:39 AM EET 4:53 PM EET
Civil Twilight 6:11 AM EET 5:21 PM EET
Nautical Twilight 5:38 AM EET 5:53 PM EET
Astronomical Twilight 5:07 AM EET 6:25 PM EET
Moon 11:42 PM EET (2/2) 9:37 AM EET (2/2)
Length of Visible Light 11h 10m
Length of Day
10h 13m
Waning Gibbous, 63% of the Moon is Illuminated
Feb 2
Waning Gibbous
Feb 3
Last Quarter
Feb 10
New
Feb 17
First Quarter
Feb 25
Full

Hourly Weather History & Observations

Time (EET) Temp. Windchill Dew Point Humidity Pressure Visibility Wind Dir Wind Speed Gust Speed Precip Events Conditions
12:50 AM 23.0 °F 14.7 °F 21.2 °F 93% 29.83 in 3.7 mi SW 6.9 mph - N/A   Overcast
1:50 AM 17.6 °F 10.7 °F 15.8 °F 93% 29.83 in 5.6 mi SW 4.6 mph - N/A   Overcast
2:50 AM 15.8 °F 7.2 °F 14.0 °F 93% 29.83 in 6.2 mi WSW 5.8 mph - N/A   Overcast
3:50 AM 14.0 °F 3.9 °F 12.2 °F 93% 29.83 in 3.7 mi SW 6.9 mph - N/A   Overcast
4:50 AM 19.4 °F 10.4 °F 17.6 °F 93% 29.83 in 6.2 mi SW 6.9 mph - N/A   Mostly Cloudy
5:50 AM 19.4 °F 10.4 °F 19.4 °F 100% 29.86 in - SW 6.9 mph - N/A Snow Light Snow
6:50 AM 21.2 °F 11.7 °F 21.2 °F 100% 29.89 in 5.6 mi WSW 8.1 mph - N/A Snow Light Snow
7:50 AM 23.0 °F 15.8 °F 21.2 °F 93% 29.92 in 6.2 mi WSW 5.8 mph - N/A   Overcast
8:00 AM 28 °F - 22 °F 72%  in 9 mi West 1.2 mph - - Snow Light Snow
8:50 AM 23.0 °F 12.4 °F 21.2 °F 93% 29.92 in 6.2 mi WSW 10.4 mph - N/A   Mostly Cloudy
9:50 AM 24.8 °F 16.1 °F 23.0 °F 93% 29.95 in 6.2 mi WSW 8.1 mph - N/A   Mostly Cloudy
10:50 AM 26.6 °F 16.8 °F 24.8 °F 93% 29.95 in 6.2 mi WSW 10.4 mph - N/A   Mostly Cloudy
11:50 AM 28.4 °F 19.7 °F 23.0 °F 80% 29.95 in 6.2 mi WSW 9.2 mph - N/A   Mostly Cloudy
12:50 PM 30.2 °F 21.9 °F 21.2 °F 69% 29.95 in 6.2 mi SW 9.2 mph - N/A   Mostly Cloudy
1:50 PM 30.2 °F 23.4 °F 21.2 °F 69% 29.98 in 6.2 mi SW 6.9 mph - N/A   Mostly Cloudy
2:00 PM 38 °F - 20 °F 35%  in 9 mi WSW 4.6 mph - -   Mostly Cloudy
2:50 PM 28.4 °F 19.7 °F 21.2 °F 74% 29.98 in 6.2 mi SW 9.2 mph - N/A   Scattered Clouds
3:50 PM 26.6 °F 18.2 °F 19.4 °F 74% 29.98 in 6.2 mi SSW 8.1 mph - N/A   Scattered Clouds
4:50 PM 21.2 °F 12.6 °F 15.8 °F 80% 30.01 in 6.2 mi South 6.9 mph - N/A   Scattered Clouds
5:50 PM 23.0 °F 13.9 °F 17.6 °F 80% 30.01 in - South 8.1 mph - N/A   Clear
6:50 PM 19.4 °F 9.5 °F 14.0 °F 80% 30.04 in - SSE 8.1 mph - N/A   Clear
7:50 PM 19.4 °F 9.5 °F 14.0 °F 80% 30.04 in - SE 8.1 mph - N/A   Clear
8:00 PM 31 °F - 21 °F 56%  in 9 mi NNE 1.2 mph - -  
8:50 PM 21.2 °F 8.9 °F 15.8 °F 80% 30.04 in - ESE 12.7 mph - N/A   Clear
9:50 PM 17.6 °F 3.7 °F 15.8 °F 93% 30.06 in - ESE 13.8 mph - N/A   Clear
10:50 PM 19.4 °F 7.2 °F 15.8 °F 86% 30.06 in - SE 11.5 mph - N/A   Clear
11:50 PM 23.0 °F 10.6 °F 17.6 °F 80% 30.06 in - SE 13.8 mph - N/A   Clear